Meteo Giornale » Osservazioni meteo Antille Olandesi » Juliana Saint Maarten

ore: 17:00 - Osservazioni Meteo Juliana Saint Maarten
Lat. 18° 3' N Lon. 63° 7' W Alt. 4 metri s.l.m.

nuvoloso

31 °C

Pioggia nelle vicinanze

Temp. 24 Ore

28 °C

32 °C

Est/Nord-Est

20.3 Km/h

Dew point 24 °C

Umidità 66 %

Visibilità  10 Km

Il sole sorge alle ore 05:58

Il sole tramonta alle ore 18:26

Data e Ora Cielo e Fenomeni T °C DP °C Um. % Pres. hPa Vis. km Vento km/h
Oggi h: 17:00 nuvoloso Pioggia nelle vicinanze 31 24 66 1015 10 E/NE 20.3
Oggi h: 16:00 nuvoloso Pioggia nelle vicinanze 31 24 66 1015 10 E 16.7
Oggi h: 15:00 poco_nuvoloso Poco Nuvoloso 32 23 59 1015 10 E 16.7
Oggi h: 14:00 nuvoloso Nuvoloso 32 24 62 1015 10 E 14.8
Oggi h: 13:00 nuvoloso Nuvoloso 32 24 62 1016 10 E/SE 16.7
Oggi h: 12:00 nuvoloso Nuvoloso 31 24 66 1017 10 E/SE 16.7
Oggi h: 11:00 molto_nuvoloso Molto Nuvoloso 31 25 70 1017 10 E 16.7
Oggi h: 10:00 molto_nuvoloso Molto Nuvoloso 31 24 66 1017 10 E 16.7
Oggi h: 09:00 molto_nuvoloso Pioggia nelle vicinanze 30 24 70 1017 10 E 20.3
Oggi h: 08:00 molto_nuvoloso Molto Nuvoloso 30 24 70 1016 10 E 14.8
Oggi h: 07:00 molto_nuvoloso Molto Nuvoloso 29 24 74 1016 10 E 13
Oggi h: 06:00 molto_nuvoloso Molto Nuvoloso 28 24 78 1015 10 E/NE 16.7
Oggi h: 05:00 molto_nuvoloso Pioggia nelle vicinanze 28 25 83 1015 10 E 11.1
Oggi h: 04:00 coperto_pioggia Pioggia 29 25 79 1015 10 E 14.8
Oggi h: 03:00 coperto_pioggia Pioggia 29 25 79 1016 10 E 11.1
Oggi h: 02:00 molto_nuvoloso Molto Nuvoloso 29 25 79 1016 10 E 9.3
Oggi h: 01:00 coperto Pioggia nelle vicinanze 29 25 79 1016 10 E 14.8
Oggi h: 00:00 coperto Coperto 29 24 74 1017 10 E 14.8
Ieri h: 23:00 coperto Coperto 29 25 79 1017 10 E 14.8
Ieri h: 22:00 coperto Coperto 29 25 79 1017 10 E 16.7
Ieri h: 21:00 molto_nuvoloso Molto Nuvoloso 29 25 79 1017 10 E 14.8
Ieri h: 20:00 nuvoloso Nuvoloso 29 25 79 1016 10 E/SE 13
Ieri h: 19:00 nuvoloso Nuvoloso 29 25 79 1016 10 E 16.7